"startDT [UTC]","vpos","CH4 [ppm]","stdev(CH4) [ppm]","CO2 [ppm]","stdev(CO2) [ppm]","H2O_reported [%]","stdev(H2O_reported)","CavityPressure [torr]","CavityTemp [C]","OutletValve","CH4_dry [ppm]","CO2_dry [ppm]","DasTemp [C]","EtalonTemp [C]","WarmBoxTemp [C]","MPVPosition","T_ECpre [C]","T_EC1 [C]","T_EC2 [C]","p_inlet [hPa]","p_in [hPa]","p_out [hPa]","T_inlet [C]","RH_inlet [%]","dwpt_inlet [C]","T_vent [C]","RH_vent [%]","dwpt_vent [C]","flow_vent [l min-1]","flow_inlet [l min-1]","dwpt_sample [C]","T_room [C]"
2015-01-10 00:00:00,3.0,1.88273,0.02284,399.427,2.529,0.0094,0.0135,140.167,45.000,31276.99978,1.88520,399.611,32.813,45.067,45.000,0.00,0.09,-272.68,-272.75,-7,519,-1,19.5,1.7,-33.1,19.9,2.7,-27.7,5.73,2.00,-22.1,25.9
2015-01-10 00:01:00,3.0,1.87685,0.00035,397.216,0.051,0.0015,0.0017,140.005,45.000,31406.17331,1.87688,397.225,32.813,45.068,45.000,0.00,0.09,-272.70,-272.73,-4,519,-1,19.5,1.6,-33.1,19.9,2.7,-27.6,5.73,2.65,-22.1,25.9
2015-01-10 00:02:00,3.0,1.87667,0.00042,397.243,0.076,0.0020,0.0021,140.003,45.000,31447.57085,1.87672,397.249,32.813,45.068,45.000,0.00,0.09,-272.66,-272.76,-6,519,-1,19.5,1.6,-33.2,19.9,2.7,-27.7,5.73,2.24,-22.1,25.9
2015-01-10 00:03:00,3.0,1.87649,0.00027,397.509,0.056,0.0013,0.0016,140.001,45.000,31479.48196,1.87653,397.512,32.813,45.068,45.000,0.00,0.09,-272.70,-272.73,-7,519,-1,19.5,1.6,-33.2,19.9,2.7,-27.6,5.73,2.29,-22.1,25.9
2015-01-10 00:04:00,3.0,1.87618,0.00041,397.575,0.024,0.0025,0.0019,140.002,45.000,31508.53004,1.87621,397.587,32.809,45.068,45.000,0.00,0.09,-272.69,-272.75,-4,519,-1,19.5,1.7,-33.1,20.0,2.7,-27.6,5.73,2.63,-22.1,26.0
2015-01-10 00:05:00,3.0,1.87642,0.00035,397.574,0.030,0.0021,0.0018,140.000,45.000,31529.84340,1.87643,397.583,32.784,45.068,45.000,0.00,0.09,-272.67,-272.74,-6,519,-1,19.5,1.6,-33.1,20.0,2.7,-27.6,5.73,2.01,-22.1,26.0
2015-01-10 00:06:00,3.0,1.87632,0.00032,397.609,0.037,0.0011,0.0018,140.000,45.000,31548.25243,1.87637,397.615,32.767,45.068,45.000,0.00,0.09,-272.70,-272.73,-7,519,-1,19.6,1.7,-33.0,20.0,2.7,-27.7,5.73,2.70,-22.0,26.0
2015-01-10 00:07:00,3.0,1.87645,0.00037,397.606,0.031,0.0006,0.0019,140.002,45.000,31566.80318,1.87645,397.609,32.753,45.068,45.001,0.00,0.09,-272.67,-272.77,-4,520,-1,19.6,1.7,-32.7,20.0,2.7,-27.7,5.73,2.19,-22.1,26.0
2015-01-10 00:08:00,3.0,1.87622,0.00036,397.611,0.027,0.0004,0.0018,140.001,45.000,31582.45549,1.87624,397.613,32.753,45.068,45.000,0.00,0.09,-272.70,-272.72,-7,520,-1,19.7,1.7,-32.6,20.0,2.7,-27.7,5.73,2.33,-22.0,26.1
2015-01-10 00:09:00,3.0,1.87642,0.00026,397.614,0.031,0.0006,0.0018,140.001,45.000,31595.15578,1.87642,397.617,32.751,45.068,45.001,0.00,0.09,-272.68,-272.74,-7,520,-1,19.7,1.7,-32.6,20.1,2.7,-27.7,5.73,2.60,-22.0,26.1
2015-01-10 00:10:00,3.0,1.87622,0.00038,397.623,0.030,0.0003,0.0024,139.999,45.000,31606.62144,1.87623,397.624,32.751,45.068,45.000,0.00,0.09,-272.68,-272.74,-5,520,-1,19.7,1.7,-32.6,20.1,2.7,-27.7,5.73,2.03,-22.0,26.1
2015-01-10 00:11:00,3.0,1.87632,0.00046,397.627,0.023,0.0003,0.0023,140.002,45.000,31616.75976,1.87633,397.629,32.750,45.068,45.000,0.00,0.09,-272.71,-272.73,-7,520,-1,19.8,1.7,-32.6,20.1,2.6,-27.8,5.73,2.68,-22.0,26.1
2015-01-10 00:12:00,3.0,1.87648,0.00036,397.621,0.038,-0.0006,0.0016,140.001,45.000,31624.48590,1.87648,397.618,32.735,45.068,45.000,0.00,0.09,-272.66,-272.76,-7,521,-1,19.8,1.7,-32.7,20.1,2.6,-27.8,5.73,2.24,-22.0,26.2
2015-01-10 00:13:00,3.0,1.87624,0.00032,397.636,0.042,-0.0001,0.0026,140.002,45.000,31634.45763,1.87622,397.635,32.705,45.068,45.000,0.00,0.09,-272.71,-272.72,-5,521,-1,19.8,1.7,-32.7,20.2,2.6,-27.7,5.73,2.32,-22.0,26.2
2015-01-10 00:14:00,3.0,1.87618,0.00027,397.635,0.030,-0.0003,0.0011,140.004,45.000,31642.79497,1.87619,397.634,32.694,45.068,45.000,0.00,0.09,-272.69,-272.75,-7,521,-1,19.9,1.7,-32.7,20.2,2.6,-27.7,5.73,2.64,-22.0,26.2
2015-01-10 00:15:00,3.0,1.87619,0.00034,397.629,0.024,-0.0000,0.0021,139.998,45.000,31645.85970,1.87621,397.629,32.690,45.068,45.000,0.00,0.09,-272.66,-272.75,-7,521,-1,19.9,1.7,-32.6,20.2,2.7,-27.7,5.73,2.06,-22.0,26.3
2015-01-10 00:16:00,3.0,1.87635,0.00033,397.632,0.029,-0.0002,0.0015,139.999,45.000,31650.71991,1.87633,397.631,32.694,45.068,45.000,0.00,0.09,-272.70,-272.72,-5,522,-1,20.0,1.7,-32.6,20.3,2.6,-27.7,5.73,2.67,-22.0,26.3
2015-01-10 00:17:00,3.0,1.87612,0.00035,397.609,0.028,0.0005,0.0013,140.000,45.000,31658.46467,1.87612,397.611,32.693,45.068,45.000,0.00,0.09,-272.67,-272.77,-7,522,-1,20.1,1.7,-32.4,20.3,2.6,-27.7,5.73,2.33,-22.0,26.3
2015-01-10 00:18:00,3.0,1.87633,0.00027,397.634,0.031,-0.0003,0.0016,139.998,45.000,31658.35873,1.87634,397.633,32.691,45.067,45.000,0.00,0.09,-272.69,-272.73,-7,522,-1,20.1,1.7,-32.5,20.3,2.6,-27.7,5.73,2.21,-22.0,26.3
2015-01-10 00:19:00,3.0,1.87655,0.00035,397.628,0.027,-0.0000,0.0019,140.001,45.000,31665.16754,1.87655,397.630,32.689,45.067,45.000,0.00,0.09,-272.69,-272.73,-5,522,-1,20.1,1.7,-32.5,20.3,2.6,-27.7,5.73,2.69,-22.0,26.4
2015-01-10 00:20:00,0.0,1.93297,0.02671,404.020,3.002,0.0348,0.0181,139.818,45.000,29292.05709,1.93139,404.054,32.686,45.067,45.000,0.00,0.09,-272.69,-272.74,-8,169,-2,20.2,1.7,-32.5,20.4,2.6,-27.7,5.73,2.42,-22.0,26.4
2015-01-10 00:21:00,0.0,1.94423,0.00032,405.451,0.035,0.0459,0.0019,139.998,45.000,29159.04773,1.94509,405.674,32.668,45.067,45.000,0.00,0.09,-272.69,-272.74,-9,168,-2,20.2,1.7,-32.6,20.4,2.6,-27.7,5.73,2.39,-22.0,26.4
2015-01-10 00:22:00,0.0,1.94402,0.00040,405.414,0.031,0.0469,0.0017,140.000,45.000,29122.93936,1.94492,405.642,32.651,45.067,45.000,0.00,0.09,-272.67,-272.74,-9,168,-2,20.2,1.7,-32.5,20.4,2.6,-27.7,5.73,2.39,-22.0,26.4
2015-01-10 00:23:00,0.0,1.94414,0.00043,405.445,0.033,0.0470,0.0023,139.998,45.000,29092.58762,1.94503,405.675,32.642,45.067,45.000,0.00,0.09,-272.68,-272.75,-8,168,-2,20.2,1.7,-32.6,20.4,2.6,-27.7,5.73,2.38,-22.0,26.4
2015-01-10 00:24:00,0.0,1.94430,0.00035,405.422,0.026,0.0460,0.0015,139.996,45.000,29071.43482,1.94518,405.647,32.649,45.068,45.000,0.00,0.09,-272.69,-272.75,-8,169,-2,20.2,1.7,-32.6,20.5,2.6,-27.6,5.73,2.38,-22.0,26.4
2015-01-10 00:25:00,0.0,1.94425,0.00035,405.429,0.038,0.0467,0.0019,139.999,45.000,29052.57006,1.94516,405.655,32.638,45.067,45.000,0.00,0.09,-272.68,-272.74,-8,169,-2,20.3,1.6,-32.7,20.5,2.6,-27.6,5.73,2.38,-22.0,26.4
2015-01-10 00:26:00,0.0,1.94398,0.00041,405.370,0.054,0.0469,0.0017,139.999,45.000,29033.78367,1.94488,405.601,32.647,45.068,45.000,0.00,0.09,-272.68,-272.74,-8,169,-2,20.3,1.6,-32.6,20.5,2.6,-27.6,5.73,2.37,-22.0,26.4
2015-01-10 00:27:00,0.0,1.94371,0.00048,405.293,0.036,0.0474,0.0019,139.999,45.000,29018.12545,1.94463,405.524,32.646,45.067,45.000,0.00,0.09,-272.68,-272.74,-8,169,-2,20.3,1.7,-32.6,20.5,2.6,-27.6,5.73,2.41,-22.0,26.4
2015-01-10 00:28:00,0.0,1.94371,0.00034,405.273,0.031,0.0478,0.0013,139.998,45.000,29005.03887,1.94463,405.507,32.629,45.067,45.000,0.00,0.09,-272.68,-272.74,-9,169,-2,20.3,1.7,-32.4,20.5,2.6,-27.6,5.73,2.42,-22.0,26.4
2015-01-10 00:29:00,0.0,1.94389,0.00038,405.305,0.034,0.0479,0.0015,139.998,45.000,28989.99423,1.94479,405.538,32.628,45.067,45.000,0.00,0.09,-272.67,-272.74,-9,169,-2,20.3,1.7,-32.4,20.5,2.6,-27.6,5.73,2.43,-22.0,26.4
2015-01-10 00:30:00,0.0,1.94402,0.00046,405.338,0.038,0.0470,0.0022,140.003,45.000,28984.12841,1.94492,405.566,32.629,45.067,45.000,0.00,0.09,-272.69,-272.75,-9,168,-2,20.3,1.7,-32.4,20.5,2.6,-27.6,5.73,2.46,-22.0,26.4
2015-01-10 00:31:00,0.0,1.94431,0.00047,405.374,0.032,0.0466,0.0017,140.000,45.000,28977.50836,1.94520,405.600,32.625,45.067,45.000,0.00,0.09,-272.69,-272.74,-8,169,-2,20.3,1.7,-32.5,20.5,2.6,-27.5,5.73,2.45,-22.0,26.4
2015-01-10 00:32:00,0.0,1.94403,0.00032,405.373,0.038,0.0467,0.0018,139.999,45.000,28971.37389,1.94493,405.600,32.616,45.067,45.000,0.00,0.09,-272.68,-272.73,-8,169,-2,20.3,1.7,-32.6,20.5,2.6,-27.5,5.73,2.46,-22.0,26.4
2015-01-10 00:33:00,0.0,1.94421,0.00042,405.344,0.036,0.0463,0.0018,139.999,45.000,28968.03447,1.94508,405.571,32.594,45.067,45.000,0.00,0.09,-272.69,-272.74,-8,170,-2,20.3,1.6,-32.8,20.5,2.6,-27.5,5.73,2.45,-22.0,26.4
2015-01-10 00:34:00,0.0,1.94417,0.00039,405.333,0.030,0.0465,0.0015,139.999,45.000,28962.12569,1.94505,405.560,32.605,45.067,45.000,0.00,0.09,-272.69,-272.75,-8,169,-2,20.3,1.6,-32.7,20.5,2.7,-27.5,5.73,2.42,-22.0,26.4
2015-01-10 00:35:00,0.0,1.94499,0.00096,405.331,0.031,0.0460,0.0024,140.002,45.000,28960.68347,1.94580,405.555,32.592,45.067,45.000,0.00,0.09,-272.69,-272.74,-8,170,-2,20.3,1.6,-32.9,20.5,2.6,-27.5,5.73,2.43,-22.0,26.4
2015-01-10 00:36:00,0.0,1.94572,0.00047,405.315,0.032,0.0445,0.0017,140.002,45.000,28956.94945,1.94659,405.533,32.563,45.067,45.000,0.00,0.09,-272.68,-272.74,-9,170,-2,20.3,1.6,-33.1,20.5,2.6,-27.5,5.73,2.39,-22.0,26.3
2015-01-10 00:37:00,0.0,1.94479,0.00056,405.299,0.026,0.0450,0.0015,140.000,45.000,28958.14979,1.94569,405.518,32.557,45.068,45.000,0.00,0.09,-272.69,-272.75,-9,170,-2,20.3,1.6,-33.1,20.5,2.6,-27.5,5.73,2.38,-22.0,26.3
2015-01-10 00:38:00,0.0,1.94462,0.00037,405.273,0.051,0.0449,0.0017,140.001,45.000,28959.36258,1.94548,405.493,32.551,45.068,45.000,0.00,0.09,-272.69,-272.74,-9,170,-2,20.2,1.6,-33.1,20.5,2.7,-27.5,5.73,2.37,-22.0,26.3
2015-01-10 00:39:00,0.0,1.94272,0.00045,405.134,0.035,0.0466,0.0023,140.000,45.000,28954.71229,1.94367,405.360,32.562,45.068,45.000,0.00,0.09,-272.68,-272.74,-9,170,-2,20.2,1.6,-32.9,20.5,2.7,-27.5,5.73,2.36,-22.1,26.3
2015-01-10 00:40:00,0.0,1.94342,0.00079,405.163,0.026,0.0469,0.0016,139.999,45.000,28955.11034,1.94426,405.392,32.563,45.068,45.000,0.00,0.09,-272.68,-272.74,-8,170,-2,20.2,1.6,-32.7,20.5,2.6,-27.5,5.73,2.37,-22.1,26.3
2015-01-10 00:41:00,0.0,1.94463,0.00025,405.210,0.029,0.0457,0.0016,140.000,45.000,28952.94132,1.94550,405.433,32.561,45.068,45.000,0.00,0.09,-272.68,-272.74,-8,171,-2,20.2,1.6,-32.9,20.5,2.6,-27.5,5.73,2.37,-22.0,26.3
2015-01-10 00:42:00,0.0,1.94391,0.00037,405.208,0.045,0.0462,0.0014,139.999,45.000,28952.37046,1.94483,405.434,32.560,45.067,45.000,0.00,0.09,-272.68,-272.74,-8,171,-2,20.1,1.6,-33.0,20.5,2.7,-27.5,5.73,2.38,-22.0,26.3
2015-01-10 00:43:00,0.0,1.94416,0.00047,405.226,0.029,0.0450,0.0019,139.998,45.000,28949.16451,1.94500,405.444,32.563,45.068,45.000,0.00,0.09,-272.68,-272.74,-8,171,-2,20.1,1.6,-33.0,20.5,2.6,-27.5,5.73,2.39,-22.0,26.2
2015-01-10 00:44:00,0.0,1.94383,0.00039,405.207,0.027,0.0461,0.0019,140.004,45.000,28953.23661,1.94471,405.431,32.563,45.067,45.000,0.00,0.09,-272.68,-272.74,-8,171,-2,20.1,1.6,-32.9,20.5,2.6,-27.5,5.73,2.41,-22.0,26.2
2015-01-10 00:45:00,0.0,1.94342,0.00034,405.197,0.030,0.0466,0.0019,140.001,45.000,28950.92209,1.94431,405.424,32.563,45.068,45.000,0.00,0.09,-272.68,-272.75,-8,171,-2,20.1,1.7,-32.7,20.5,2.7,-27.5,5.73,2.42,-22.0,26.2
2015-01-10 00:46:00,0.0,1.94369,0.00058,405.215,0.028,0.0465,0.0013,140.000,45.000,28950.23335,1.94454,405.441,32.563,45.068,45.000,0.00,0.09,-272.68,-272.74,-9,171,-2,20.1,1.6,-32.8,20.5,2.6,-27.5,5.73,2.45,-22.0,26.2
2015-01-10 00:47:00,0.0,1.94470,0.00054,405.224,0.032,0.0460,0.0019,140.000,45.000,28952.93631,1.94562,405.448,32.563,45.068,45.000,0.00,0.09,-272.68,-272.75,-8,172,-2,20.1,1.6,-33.0,20.5,2.6,-27.5,5.73,2.42,-22.0,26.2
2015-01-10 00:48:00,0.0,1.94457,0.00047,405.225,0.048,0.0459,0.0017,140.000,45.000,28947.00377,1.94540,405.448,32.563,45.068,45.000,0.00,0.09,-272.69,-272.74,-8,171,-2,20.0,1.6,-33.0,20.4,2.7,-27.5,5.73,2.42,-22.0,26.2
2015-01-10 00:49:00,0.0,1.94487,0.00042,405.219,0.041,0.0454,0.0017,140.002,45.000,28951.73132,1.94575,405.440,32.567,45.068,45.000,0.00,0.09,-272.69,-272.74,-8,171,-2,20.0,1.6,-33.0,20.4,2.7,-27.6,5.73,2.42,-22.0,26.2
2015-01-10 00:50:00,0.0,1.94443,0.00071,405.234,0.052,0.0459,0.0019,140.000,45.000,28948.88538,1.94531,405.455,32.567,45.068,45.000,0.00,0.09,-272.68,-272.74,-8,171,-2,19.9,1.6,-33.1,20.4,2.7,-27.5,5.73,2.42,-22.0,26.2
2015-01-10 00:51:00,0.0,1.94465,0.00046,405.329,0.030,0.0458,0.0019,140.004,45.000,28947.04086,1.94552,405.552,32.596,45.068,45.000,0.00,0.09,-272.69,-272.74,-8,171,-2,19.9,1.6,-32.9,20.4,2.7,-27.5,5.73,2.42,-22.0,26.2
2015-01-10 00:52:00,0.0,1.94451,0.00052,405.377,0.037,0.0470,0.0020,139.999,45.000,28941.56790,1.94542,405.605,32.619,45.068,45.000,0.00,0.09,-272.69,-272.74,-8,170,-2,19.9,1.7,-32.7,20.4,2.7,-27.5,5.73,2.42,-22.0,26.1
2015-01-10 00:53:00,0.0,1.94381,0.00065,405.345,0.038,0.0479,0.0017,140.000,45.000,28942.23749,1.94475,405.578,32.573,45.067,45.000,0.00,0.09,-272.69,-272.74,-8,170,-2,19.9,1.7,-32.6,20.4,2.7,-27.5,5.73,2.42,-22.0,26.1
2015-01-10 00:54:00,0.0,1.94357,0.00033,405.291,0.035,0.0482,0.0014,140.000,45.000,28940.19868,1.94449,405.528,32.565,45.067,45.000,0.00,0.09,-272.69,-272.74,-8,170,-2,19.9,1.7,-32.4,20.4,2.7,-27.5,5.73,2.41,-22.0,26.1
2015-01-10 00:55:00,0.0,1.94377,0.00047,405.269,0.024,0.0484,0.0019,140.000,45.000,28942.37098,1.94468,405.503,32.564,45.068,45.000,0.00,0.09,-272.69,-272.74,-8,170,-2,19.8,1.7,-32.3,20.3,2.7,-27.5,5.73,2.40,-22.0,26.1
2015-01-10 00:56:00,0.0,1.94359,0.00054,405.271,0.029,0.0477,0.0018,140.004,45.000,28942.48711,1.94453,405.504,32.563,45.068,45.000,0.00,0.09,-272.68,-272.73,-8,170,-2,19.8,1.7,-32.5,20.3,2.7,-27.5,5.73,2.40,-22.0,26.1
2015-01-10 00:57:00,0.0,1.94301,0.00038,405.247,0.030,0.0490,0.0016,140.000,45.000,28943.71652,1.94394,405.487,32.571,45.068,45.000,0.00,0.09,-272.68,-272.74,-8,171,-2,19.8,1.8,-32.3,20.3,2.7,-27.5,5.73,2.39,-22.0,26.1
2015-01-10 00:58:00,0.0,1.94331,0.00041,405.259,0.032,0.0491,0.0017,140.000,45.000,28945.62765,1.94424,405.498,32.569,45.068,45.000,0.00,0.09,-272.68,-272.75,-8,171,-2,19.8,1.8,-32.2,20.3,2.7,-27.5,5.73,2.39,-22.0,26.1
2015-01-10 00:59:00,0.0,1.94306,0.00039,405.213,0.031,0.0494,0.0019,139.999,45.000,28949.04633,1.94403,405.454,32.569,45.068,45.000,0.00,0.09,-272.68,-272.74,-8,172,-2,19.8,1.8,-32.2,20.3,2.7,-27.5,5.73,2.38,-22.0,26.1
2015-01-10 01:00:00,3.0,1.88267,0.02379,398.192,1.882,0.0077,0.0108,140.150,45.000,31351.20542,1.88530,398.375,32.573,45.068,45.000,0.00,0.09,-272.65,-272.76,-5,520,-2,19.8,1.8,-32.2,20.3,2.7,-27.6,5.73,2.32,-22.0,26.1
2015-01-10 01:01:00,3.0,1.87655,0.00043,397.640,0.044,0.0022,0.0019,140.003,45.000,31406.10097,1.87659,397.652,32.565,45.068,45.000,0.00,0.09,-272.70,-272.73,-6,520,-2,19.7,1.8,-32.1,20.3,2.7,-27.6,5.73,2.27,-22.1,26.1
2015-01-10 01:02:00,3.0,1.87667,0.00042,397.607,0.028,0.0018,0.0015,140.001,45.000,31445.22322,1.87670,397.615,32.563,45.068,45.000,0.00,0.09,-272.67,-272.75,-7,520,-2,19.7,1.8,-32.1,20.3,2.7,-27.5,5.73,2.60,-22.1,26.1
2015-01-10 01:03:00,3.0,1.87655,0.00027,397.646,0.032,0.0018,0.0016,140.002,45.000,31478.66099,1.87659,397.654,32.564,45.068,45.000,0.00,0.09,-272.68,-272.74,-4,520,-2,19.7,1.8,-32.2,20.3,2.7,-27.6,5.73,2.01,-22.0,26.1
2015-01-10 01:04:00,3.0,1.87673,0.00026,397.667,0.031,0.0009,0.0012,140.002,45.000,31505.78658,1.87676,397.672,32.566,45.068,45.000,0.00,0.09,-272.70,-272.74,-7,520,-2,19.7,1.8,-32.2,20.3,2.7,-27.6,5.73,2.75,-22.1,26.1
2015-01-10 01:05:00,3.0,1.87655,0.00038,397.665,0.032,0.0016,0.0016,140.002,45.000,31529.89980,1.87655,397.673,32.575,45.068,45.000,0.00,0.09,-272.67,-272.76,-6,520,-2,19.8,1.8,-32.3,20.3,2.7,-27.6,5.73,1.96,-22.0,26.1
2015-01-10 01:06:00,3.0,1.87668,0.00024,397.644,0.028,0.0004,0.0022,140.002,45.000,31549.95979,1.87671,397.645,32.565,45.068,45.000,0.00,0.09,-272.71,-272.72,-5,520,-2,19.8,1.7,-32.4,20.3,2.6,-27.7,5.73,2.74,-22.1,26.1
2015-01-10 01:07:00,3.0,1.87652,0.00024,397.652,0.021,0.0007,0.0017,140.000,45.000,31566.81948,1.87654,397.655,32.564,45.068,45.000,0.00,0.09,-272.66,-272.76,-8,521,-2,19.8,1.7,-32.4,20.3,2.6,-27.7,5.73,2.05,-22.0,26.2
2015-01-10 01:08:00,3.0,1.87670,0.00036,397.653,0.026,-0.0002,0.0019,139.999,45.000,31580.35813,1.87669,397.654,32.565,45.068,45.000,0.00,0.09,-272.72,-272.72,-4,521,-2,19.8,1.8,-32.0,20.3,2.7,-27.6,5.73,2.61,-22.1,26.2
2015-01-10 01:09:00,3.0,1.87632,0.00026,397.639,0.028,0.0004,0.0015,140.000,45.000,31596.13827,1.87632,397.641,32.564,45.068,45.000,0.00,0.09,-272.65,-272.76,-7,521,-2,19.9,1.9,-31.6,20.3,2.6,-27.6,5.73,2.19,-22.1,26.2
2015-01-10 01:10:00,3.0,1.87679,0.00037,397.652,0.027,0.0007,0.0013,140.000,45.000,31605.78752,1.87680,397.655,32.564,45.068,45.000,0.00,0.09,-272.71,-272.72,-5,521,-2,19.9,1.9,-31.7,20.3,2.6,-27.6,5.73,2.49,-22.1,26.2
2015-01-10 01:11:00,3.0,1.87641,0.00043,397.644,0.028,-0.0003,0.0018,139.999,45.000,31616.62454,1.87641,397.642,32.582,45.068,45.000,0.00,0.09,-272.66,-272.77,-5,521,-2,19.9,1.8,-31.9,20.3,2.6,-27.6,5.73,2.30,-22.1,26.2
2015-01-10 01:12:00,3.0,1.87659,0.00025,397.656,0.035,-0.0001,0.0020,140.002,45.000,31625.71866,1.87661,397.656,32.578,45.068,45.000,0.00,0.09,-272.71,-272.72,-7,521,-2,19.9,1.8,-32.0,20.4,2.6,-27.6,5.73,2.39,-22.1,26.3
2015-01-10 01:13:00,3.0,1.87626,0.00034,397.633,0.033,-0.0000,0.0026,140.001,45.000,31634.23829,1.87625,397.633,32.595,45.068,45.000,0.00,0.09,-272.66,-272.76,-4,522,-2,20.0,1.8,-31.8,20.4,2.6,-27.7,5.73,2.41,-22.1,26.3
2015-01-10 01:14:00,3.0,1.87662,0.00031,397.653,0.024,0.0006,0.0016,140.001,45.000,31638.63439,1.87661,397.656,32.622,45.068,45.000,0.00,0.09,-272.71,-272.73,-8,522,-2,20.0,1.8,-31.9,20.4,2.6,-27.7,5.73,2.27,-22.0,26.3
2015-01-10 01:15:00,3.0,1.87662,0.00034,397.645,0.025,0.0004,0.0019,140.001,45.000,31644.54889,1.87664,397.646,32.632,45.067,45.000,0.00,0.09,-272.66,-272.77,-4,522,-2,20.1,1.8,-32.1,20.4,2.6,-27.7,5.73,2.51,-22.0,26.3
2015-01-10 01:16:00,3.0,1.87654,0.00036,397.651,0.031,-0.0003,0.0017,139.999,45.000,31648.91628,1.87655,397.650,32.660,45.067,45.000,0.00,0.09,-272.70,-272.72,-7,522,-2,20.1,1.7,-32.3,20.5,2.6,-27.7,5.73,2.21,-22.0,26.4
2015-01-10 01:17:00,3.0,1.87659,0.00040,397.656,0.031,-0.0004,0.0018,140.002,45.000,31654.51639,1.87657,397.654,32.641,45.067,45.000,0.00,0.09,-272.67,-272.76,-6,522,-2,20.1,1.7,-32.2,20.5,2.6,-27.6,5.73,2.56,-22.0,26.4
2015-01-10 01:18:00,3.0,1.87641,0.00033,397.641,0.023,-0.0000,0.0014,139.999,45.000,31659.72391,1.87638,397.642,32.634,45.067,45.000,0.00,0.09,-272.70,-272.73,-5,522,-2,20.2,1.8,-32.0,20.5,2.6,-27.6,5.73,2.12,-22.1,26.4
2015-01-10 01:19:00,3.0,1.87664,0.00031,397.661,0.028,0.0001,0.0017,139.999,45.000,31660.08425,1.87667,397.661,32.652,45.067,45.000,0.00,0.09,-272.67,-272.75,-7,523,-2,20.2,1.8,-32.0,20.5,2.6,-27.6,5.73,2.63,-22.0,26.4
2015-01-10 01:20:00,3.0,1.87674,0.00033,397.655,0.030,-0.0006,0.0016,139.999,45.000,31664.62148,1.87674,397.652,32.648,45.068,45.000,0.00,0.09,-272.69,-272.72,-4,523,-2,20.2,1.7,-32.2,20.5,2.6,-27.7,5.73,2.08,-22.0,26.4
2015-01-10 01:21:00,3.0,1.87656,0.00038,397.660,0.031,0.0004,0.0019,140.001,45.000,31668.84132,1.87656,397.662,32.629,45.068,45.000,0.00,0.09,-272.68,-272.76,-8,523,-2,20.2,1.7,-32.2,20.6,2.6,-27.7,5.73,2.66,-22.0,26.4
2015-01-10 01:22:00,3.0,1.87664,0.00031,397.622,0.032,-0.0001,0.0025,140.000,45.000,31673.46590,1.87662,397.622,32.642,45.068,45.000,0.00,0.09,-272.69,-272.73,-5,523,-2,20.3,1.7,-32.2,20.6,2.6,-27.7,5.73,2.04,-22.0,26.5
2015-01-10 01:23:00,3.0,1.87643,0.00045,397.625,0.031,-0.0002,0.0016,140.001,45.000,31677.00438,1.87647,397.624,32.676,45.068,45.000,0.00,0.09,-272.68,-272.74,-7,523,-2,20.3,1.7,-32.3,20.6,2.6,-27.7,5.73,2.70,-22.0,26.5
2015-01-10 01:24:00,3.0,1.87614,0.00030,397.618,0.031,-0.0008,0.0019,139.999,45.000,31680.39683,1.87610,397.615,32.669,45.068,45.000,0.00,0.09,-272.69,-272.74,-6,523,-2,20.4,1.7,-32.3,20.7,2.6,-27.6,5.73,2.02,-22.0,26.5
2015-01-10 01:25:00,2.0,1.85110,0.01090,390.850,2.738,0.0014,0.0025,140.017,45.000,32070.00650,1.85212,390.989,32.672,45.068,45.000,0.00,0.09,-272.70,-272.75,-5,586,-2,20.4,1.7,-32.4,20.7,2.6,-27.6,5.73,2.79,-22.0,26.5
2015-01-10 01:26:00,2.0,1.84649,0.00030,389.662,0.034,0.0012,0.0016,140.001,45.000,32117.58069,1.84652,389.666,32.688,45.068,45.000,0.00,0.09,-272.68,-272.74,-7,588,-2,20.4,1.7,-32.4,20.7,2.6,-27.6,5.73,1.98,-22.0,26.6
2015-01-10 01:27:00,2.0,1.84637,0.00032,389.682,0.032,0.0016,0.0016,140.001,45.000,32131.45483,1.84641,389.691,32.687,45.068,45.000,0.00,0.09,-272.68,-272.75,-5,588,-2,20.5,1.7,-32.2,20.7,2.6,-27.7,5.73,2.72,-22.0,26.6
2015-01-10 01:28:00,2.0,1.84643,0.00023,389.669,0.026,0.0014,0.0018,140.000,45.000,32140.85668,1.84644,389.674,32.688,45.068,45.000,0.00,0.09,-272.69,-272.73,-8,589,-2,20.5,1.7,-32.1,20.7,2.6,-27.7,5.73,2.04,-22.0,26.6
2015-01-10 01:29:00,2.0,1.84634,0.00035,389.670,0.021,0.0015,0.0015,139.999,45.000,32147.05739,1.84636,389.678,32.690,45.068,45.000,0.00,0.09,-272.67,-272.75,-4,589,-2,20.5,1.7,-32.2,20.7,2.6,-27.7,5.73,2.64,-22.0,26.6
2015-01-10 01:30:00,2.0,1.84635,0.00033,389.662,0.024,0.0007,0.0017,140.000,45.000,32154.36701,1.84635,389.666,32.689,45.068,45.000,0.00,0.09,-272.69,-272.73,-8,589,-2,20.5,1.7,-32.3,20.8,2.6,-27.7,5.73,2.10,-22.0,26.6
2015-01-10 01:31:00,2.0,1.84632,0.00032,389.649,0.030,0.0004,0.0016,139.998,45.000,32158.06840,1.84634,389.649,32.690,45.068,45.000,0.00,0.09,-272.67,-272.76,-4,589,-2,20.6,1.7,-32.2,20.8,2.6,-27.7,5.73,2.59,-22.0,26.7
2015-01-10 01:32:00,2.0,1.84656,0.00030,389.656,0.026,0.0003,0.0016,140.001,45.000,32161.77066,1.84656,389.658,32.691,45.068,45.000,0.00,0.09,-272.71,-272.72,-8,590,-2,20.6,1.7,-32.1,20.8,2.6,-27.6,5.73,2.24,-22.0,26.6
2015-01-10 01:33:00,2.0,1.84652,0.00029,389.657,0.030,0.0002,0.0018,139.998,45.000,32164.88626,1.84652,389.658,32.700,45.068,45.000,0.00,0.09,-272.65,-272.76,-4,590,-2,20.7,1.7,-32.3,20.9,2.6,-27.6,5.73,2.43,-22.0,26.7
2015-01-10 01:34:00,2.0,1.84617,0.00033,389.659,0.031,0.0005,0.0019,140.001,45.000,32168.06794,1.84617,389.661,32.713,45.068,45.000,0.00,0.09,-272.72,-272.71,-7,590,-2,20.7,1.7,-32.3,20.9,2.6,-27.6,5.73,2.39,-22.0,26.7
2015-01-10 01:35:00,2.0,1.84622,0.00035,389.655,0.026,0.0000,0.0017,139.998,45.000,32171.91398,1.84623,389.656,32.719,45.068,45.000,0.00,0.09,-272.66,-272.77,-5,590,-2,20.7,1.7,-32.3,20.9,2.6,-27.6,5.73,2.24,-22.0,26.7
2015-01-10 01:36:00,2.0,1.84613,0.00034,389.666,0.033,0.0002,0.0016,140.000,45.000,32174.73007,1.84614,389.667,32.704,45.068,45.000,0.00,0.09,-272.71,-272.71,-7,590,-2,20.7,1.6,-32.5,20.9,2.6,-27.6,5.73,2.57,-22.0,26.7
2015-01-10 01:37:00,2.0,1.84633,0.00033,389.679,0.027,0.0007,0.0018,140.002,45.000,32176.76786,1.84631,389.682,32.709,45.068,45.000,0.00,0.09,-272.65,-272.77,-6,590,-2,20.7,1.6,-32.5,20.9,2.6,-27.6,5.73,2.03,-22.0,26.7
2015-01-10 01:38:00,2.0,1.84628,0.00036,389.638,0.035,0.0004,0.0017,140.000,45.000,32178.62918,1.84631,389.640,32.744,45.067,45.000,0.00,0.09,-272.72,-272.72,-6,590,-2,20.8,1.6,-32.5,21.0,2.6,-27.6,5.73,2.79,-21.9,26.7
2015-01-10 01:39:00,2.0,1.84619,0.00035,389.654,0.030,0.0001,0.0021,140.001,45.000,32179.83150,1.84621,389.654,32.749,45.067,45.000,0.00,0.09,-272.65,-272.76,-6,590,-2,20.8,1.6,-32.5,21.0,2.6,-27.5,5.73,1.89,-21.9,26.8
2015-01-10 01:40:00,2.0,1.84618,0.00031,389.644,0.020,-0.0000,0.0015,140.000,45.000,32182.07046,1.84618,389.645,32.751,45.067,45.000,0.00,0.09,-272.70,-272.72,-6,590,-2,20.9,1.6,-32.5,21.0,2.5,-27.7,5.73,2.85,-21.9,26.8
2015-01-10 01:41:00,2.0,1.84609,0.00037,389.654,0.029,-0.0012,0.0018,139.999,45.000,32181.69160,1.84607,389.648,32.755,45.067,45.000,0.00,0.09,-272.67,-272.75,-7,590,-2,20.9,1.6,-32.4,21.0,2.5,-27.6,5.73,1.88,-21.9,26.8
2015-01-10 01:42:00,2.0,1.84609,0.00034,389.665,0.034,-0.0002,0.0012,140.000,45.000,32183.85886,1.84608,389.665,32.770,45.068,45.000,0.00,0.09,-272.68,-272.74,-6,590,-2,20.9,1.7,-32.2,21.1,2.5,-27.6,5.73,2.78,-21.9,26.8
2015-01-10 01:43:00,2.0,1.84608,0.00023,389.665,0.026,-0.0006,0.0012,139.998,45.000,32185.19755,1.84605,389.661,32.763,45.068,45.000,0.00,0.09,-272.69,-272.73,-7,590,-2,20.9,1.7,-32.1,21.1,2.5,-27.6,5.73,1.96,-21.9,26.8
2015-01-10 01:44:00,2.0,1.84616,0.00036,389.665,0.037,0.0003,0.0024,140.003,45.000,32185.79147,1.84617,389.667,32.759,45.067,45.000,0.00,0.09,-272.68,-272.76,-5,590,-2,20.9,1.6,-32.2,21.1,2.5,-27.6,5.73,2.65,-21.9,26.8
2015-01-10 01:45:00,2.0,1.84616,0.00033,389.668,0.033,-0.0009,0.0025,139.998,45.000,32184.99668,1.84616,389.663,32.760,45.068,45.000,0.00,0.09,-272.71,-272.73,-8,590,-2,21.0,1.7,-32.1,21.1,2.5,-27.5,5.73,2.14,-21.9,26.8
2015-01-10 01:46:00,2.0,1.84614,0.00035,389.642,0.027,-0.0008,0.0025,140.000,45.000,32186.11463,1.84614,389.639,32.779,45.068,45.000,0.00,0.09,-272.66,-272.76,-5,590,-2,21.0,1.7,-32.0,21.1,2.5,-27.6,5.73,2.46,-21.9,26.9